Location: Beccas
(43.4309°N, 0.1528°E)
Time: 20:29:21
(UTC+00:00)

Cosmos 1048 Rocket - Pass Details

Date: 15 October 2021
Orbit: 743 x 791 km, 74.0° (Epoch: 29 November)

Event Time Altitude Azimuth Distance (km) Brightness Sun altitude
Rises 17:49:22 0° 343° (NNW) 3,297 7.4 -6.8°
Reaches altitude 10° 17:51:50 10° 348° (NNW) 2,361 6.6 -7.3°
Maximum altitude 17:57:06 55° 66° (ENE) 944 4.2 -8.2°
Drops below altitude 10° 18:02:18 10° 144° (SE) 2,324 6.2 -9.1°
Sets 18:04:42 0° 148° (SSE) 3,240 7.0 -9.6°
